PDT,Max TemperatureF,Mean TemperatureF,Min TemperatureF,Max Dew PointF,MeanDew PointF,Min DewpointF,Max Humidity, Mean Humidity, Min Humidity, Max Sea Level PressureIn, Mean Sea Level PressureIn, Min Sea Level PressureIn, Max VisibilityMiles, Mean VisibilityMiles, Min VisibilityMiles, Max Wind SpeedMPH, Mean Wind SpeedMPH, Max Gust SpeedMPH,PrecipitationIn, CloudCover, Events, WindDirDegrees
2013-5-1,63,46,29,35,31,22,98,58,21,30.59,30.56,30.49,10,10,10,10,4,,0.00,0,,59
2013-5-2,68,52,37,42,38,31,96,57,33,30.56,30.46,30.39,10,10,10,13,3,,0.00,1,,28
2013-5-3,69,58,48,46,43,37,71,56,39,30.40,30.34,30.24,10,10,10,16,6,24,0.00,0,,23
2013-5-4,77,60,44,47,42,35,91,49,25,30.23,30.14,30.00,10,10,10,20,8,26,0.00,0,,41
2013-5-5,82,63,44,44,41,39,87,44,21,29.99,29.88,29.78,10,10,10,15,6,22,0.00,0,,37
2013-5-6,86,65,44,53,46,42,93,54,23,29.87,29.83,29.78,10,10,8,10,4,,0.00,0,,293
2013-5-7,67,59,51,53,50,48,94,78,60,30.03,29.97,29.88,10,10,10,9,6,,0.00,4,,259
2013-5-8,67,58,50,52,49,48,94,76,57,30.17,30.13,30.05,10,10,10,8,4,,0.00,5,,213
2013-5-9,73,60,46,53,49,45,100,86,39,30.25,30.20,30.14,10,7,0,6,2,,0.00,4,Fog,221
2013-5-10,80,62,44,54,48,39,100,80,32,30.22,30.19,30.13,10,6,0,7,2,,0.00,0,Fog,227
2013-5-11,82,66,51,58,49,38,77,57,40,30.21,30.12,30.03,10,10,10,9,4,21,0.00,2,,271
2013-5-12,70,64,57,59,57,55,100,88,63,30.13,30.08,30.04,10,9,2,9,4,,0.10,7,Rain,242
2013-5-13,67,56,47,58,53,41,100,90,63,30.24,30.06,29.97,10,9,2,30,8,44,0.29,7,Rain-Thunderstorm,227
2013-5-14,65,54,42,44,41,33,93,63,31,30.26,30.21,30.13,10,10,10,8,5,,0.00,4,,182
2013-5-15,60,50,41,54,49,40,100,87,55,30.14,30.06,30.03,10,9,2,12,4,,0.06,6,Rain,185
2013-5-16,71,60,50,55,51,44,100,87,38,30.04,29.98,29.89,10,6,0,13,2,,0.00,6,Fog-Rain,320
2013-5-17,62,56,51,54,51,45,100,91,58,30.10,30.01,29.98,10,9,1,15,6,26,0.25,7,Rain,201
2013-5-18,59,54,49,54,50,46,100,83,67,30.31,30.20,30.10,10,10,2,12,5,,0.09,8,Rain,200
2013-5-19,63,56,50,52,51,47,100,87,60,30.43,30.37,30.29,10,10,9,10,4,,0.03,8,Rain,258
2013-5-20,66,55,44,49,47,43,100,77,52,30.39,30.21,29.94,10,10,10,10,4,22,0.00,5,,292
2013-5-21,58,51,44,48,45,39,100,83,57,29.94,29.86,29.80,10,10,5,18,8,24,0.51,8,Rain,214
2013-5-22,50,46,39,46,44,39,100,89,78,29.97,29.91,29.88,10,9,2,13,9,,0.53,8,Rain,184
2013-5-23,52,46,41,49,45,41,100,90,76,30.04,30.00,29.96,10,9,2,14,4,,0.50,8,Rain,148
2013-5-24,59,52,44,52,48,45,100,90,63,30.09,30.04,29.98,10,8,0,14,3,20,0.22,7,Fog-Rain,210
2013-5-25,59,52,47,50,47,44,99,80,62,30.07,30.04,29.99,10,10,10,6,4,,0.01,7,Rain,253
2013-5-26,61,54,48,55,52,48,100,91,72,30.02,30.00,29.96,10,8,2,9,3,17,0.40,7,Rain,249
2013-5-27,60,54,48,57,53,46,100,95,82,29.99,29.83,29.72,10,6,0,12,4,,0.40,6,Fog-Rain,139
2013-5-28,63,56,51,54,51,48,100,83,64,29.91,29.87,29.79,10,9,2,16,8,21,0.10,8,Rain,240
2013-5-29,60,54,48,52,49,46,100,86,64,30.03,29.81,29.70,10,10,2,18,6,28,0.28,8,Rain,262
2013-5-30,62,52,44,52,48,44,99,80,57,30.29,30.15,30.01,10,9,2,16,9,20,0.24,7,Rain,210
2013-5-31,65,56,47,50,47,41,99,75,43,30.37,30.33,30.27,10,10,10,7,4,,0.00,6,,243